{"data":{"norad_id":69049,"intl_designator":"2026-102A","name":"TIANZHOU-10","alt_names":[],"object_type":"PAYLOAD","status":"ACTIVE","operator":null,"country":"PRC","launch_date":"2026-05-11","launch_site_code":"WSC","launch_vehicle":null,"mission":null,"orbit_class":"UNKNOWN","rcs_meters":null,"size_class":null,"mass_kg":null,"dimensions":null,"purposes":["station"],"wikipedia_slug":null,"has_3d_model":false,"image_url":null,"decayed_at":null,"tle_current":{"epoch":"2026-05-24T22:25:35.020704Z","epoch_age_seconds":74549,"freshness":"FRESH","line1":"1 69049U 26102A   26144.93443311  .00014030  00000+0  17335-3 0  9993","line2":"2 69049  41.4678 103.4027 0011057 275.7252  84.2326 15.59794200289546","mean_motion":15.597942,"eccentricity":0.0011057,"inclination_deg":41.4678,"raan_deg":103.4027,"arg_perigee_deg":275.7252,"mean_anomaly_deg":84.2326,"bstar":0.00017335,"rev_number":28954,"period_min":92.319871429192,"perigee_km":380.77059257619,"apogee_km":395.73378562897,"semimajor_km":6766.3891891026,"source":"CELESTRAK","updated_at":"2026-05-25T13:38:09.048553Z"}}}